| time (UTC) | temp F | wind direction | speed knots | gust knots | rain 1hr in | rain 24hr in | rain mn in | humidity % | barometer mb |
| 20260506045012 | 66 | 195 | 0.0 | 0.0 | 0.00 | 0.00 | 0.00 | 61 | 1010.3 |
| 20260506044510 | 66 | 142 | 0.0 | 0.0 | 0.00 | 0.00 | 0.00 | 61 | 1010.4 |
| 20260506044006 | 67 | 217 | 0.9 | 1.7 | 0.00 | 0.00 | 0.00 | 61 | 1010.5 |
| 20260506043503 | 67 | 210 | 1.7 | 1.7 | 0.00 | 0.00 | 0.00 | 60 | 1010.4 |
| 20260506043002 | 67 | 219 | 0.0 | 0.0 | 0.00 | 0.00 | 0.00 | 60 | 1010.4 |
| 20260506042500 | 67 | 200 | 2.6 | 4.3 | 0.00 | 0.00 | 0.00 | 60 | 1010.4 |
| 20260506041957 | 67 | 224 | 0.0 | 0.9 | 0.00 | 0.00 | 0.00 | 60 | 1010.5 |
| 20260506041455 | 67 | 178 | 0.9 | 2.6 | 0.00 | 0.00 | 0.00 | 61 | 1010.4 |
| 20260506040952 | 67 | 191 | 0.0 | 0.9 | 0.00 | 0.00 | 0.00 | 60 | 1010.3 |
| 20260506040450 | 67 | 204 | 1.7 | 2.6 | 0.00 | 0.00 | 0.00 | 60 | 1010.3 |
| 20260506035946 | 67 | 211 | 0.0 | 0.9 | 0.00 | 0.00 | 0.00 | 60 | 1010.4 |
| 20260506035443 | 68 | 200 | 0.0 | 0.0 | 0.00 | 0.00 | 0.00 | 59 | 1010.3 |
| 20260506034939 | 68 | 223 | 0.9 | 1.7 | 0.00 | 0.00 | 0.00 | 59 | 1010.3 |
| 20260506034437 | 68 | 191 | 1.7 | 1.7 | 0.00 | 0.00 | 0.00 | 58 | 1010.6 |
| 20260506033934 | 68 | 205 | 0.9 | 1.7 | 0.00 | 0.00 | 0.00 | 58 | 1010.6 |
| 20260506033431 | 68 | 194 | 0.0 | 1.7 | 0.00 | 0.00 | 0.00 | 57 | 1010.3 |
| 20260506032928 | 68 | 197 | 2.6 | 2.6 | 0.00 | 0.00 | 0.00 | 57 | 1010.5 |
| 20260506032425 | 68 | 225 | 2.6 | 5.2 | 0.00 | 0.00 | 0.00 | 56 | 1010.1 |
| 20260506031921 | 69 | 202 | 2.6 | 2.6 | 0.00 | 0.00 | 0.00 | 55 | 1010.2 |
| 20260506031419 | 69 | 218 | 0.0 | 0.9 | 0.00 | 0.00 | 0.00 | 54 | 1010.3 |
| 20260506030916 | 69 | 193 | 1.7 | 1.7 | 0.00 | 0.00 | 0.00 | 53 | 1010.3 |
| 20260506030414 | 69 | 194 | 0.9 | 0.9 | 0.00 | 0.00 | 0.00 | 52 | 1010.2 |
| 20260506025911 | 70 | 202 | 1.7 | 1.7 | 0.00 | 0.00 | 0.00 | 51 | 1010.3 |
| 20260506025408 | 70 | 200 | 0.0 | 0.9 | 0.00 | 0.00 | 0.00 | 50 | 1010.3 |
| 20260506024904 | 70 | 185 | 0.9 | 5.2 | 0.00 | 0.00 | 0.00 | 50 | 1010.1 |
| 20260506024402 | 70 | 259 | 0.0 | 0.0 | 0.00 | 0.00 | 0.00 | 49 | 1010.2 |
| 20260506023857 | 71 | 209 | 6.1 | 7.8 | 0.00 | 0.00 | 0.00 | 48 | 1010.3 |
| 20260506023355 | 71 | 196 | 0.0 | 0.0 | 0.00 | 0.00 | 0.00 | 47 | 1010.1 |
| 20260506022851 | 71 | 196 | 2.6 | 4.3 | 0.00 | 0.00 | 0.00 | 47 | 1010.2 |
| 20260506022349 | 71 | 201 | 2.6 | 6.1 | 0.00 | 0.00 | 0.00 | 46 | 1010.1 |
| 20260506021847 | 71 | 225 | 0.0 | 0.9 | 0.00 | 0.00 | 0.00 | 46 | 1010.1 |
| 20260506021343 | 72 | 197 | 0.0 | 0.9 | 0.00 | 0.00 | 0.00 | 46 | 1010.1 |
| 20260506020840 | 72 | 170 | 0.9 | 2.6 | 0.00 | 0.00 | 0.00 | 45 | 1010.1 |
| 20260506020338 | 72 | 211 | 1.7 | 2.6 | 0.00 | 0.00 | 0.00 | 45 | 1009.9 |
| 20260506015835 | 72 | 215 | 5.2 | 7.0 | 0.00 | 0.00 | 0.00 | 45 | 1010.0 |
| 20260506015333 | 73 | 240 | 1.7 | 2.6 | 0.00 | 0.00 | 0.00 | 45 | 1009.8 |
| 20260506014829 | 73 | 167 | 1.7 | 2.6 | 0.00 | 0.00 | 0.00 | 45 | 1010.0 |
| 20260506014326 | 73 | 207 | 1.7 | 1.7 | 0.00 | 0.00 | 0.00 | 44 | 1009.7 |
| 20260506013823 | 73 | 197 | 2.6 | 5.2 | 0.00 | 0.00 | 0.00 | 45 | 1009.7 |
| 20260506013320 | 73 | 216 | 3.5 | 6.1 | 0.00 | 0.00 | 0.00 | 45 | 1009.5 |
| 20260506012817 | 73 | 237 | 2.6 | 6.1 | 0.00 | 0.00 | 0.00 | 45 | 1009.7 |
| 20260506012314 | 72 | 199 | 1.7 | 2.6 | 0.00 | 0.00 | 0.00 | 45 | 1009.7 |
| 20260506011811 | 73 | 207 | 2.6 | 2.6 | 0.00 | 0.00 | 0.00 | 45 | 1009.6 |
| 20260506011307 | 73 | 200 | 4.3 | 7.0 | 0.00 | 0.00 | 0.00 | 45 | 1009.6 |
| 20260506010805 | 73 | 156 | 3.5 | 7.0 | 0.00 | 0.00 | 0.00 | 45 | 1009.4 |
| 20260506010303 | 73 | 207 | 1.7 | 2.6 | 0.00 | 0.00 | 0.00 | 45 | 1009.3 |
| 20260506005759 | 73 | 188 | 1.7 | 2.6 | 0.00 | 0.00 | 0.00 | 44 | 1009.5 |
| 20260506005256 | 73 | 207 | 1.7 | 1.7 | 0.00 | 0.00 | 0.00 | 44 | 1009.2 |
| 20260506004752 | 73 | 221 | 3.5 | 6.1 | 0.00 | 0.00 | 0.00 | 43 | 1009.2 |
| 20260506004250 | 74 | 198 | 0.9 | 1.7 | 0.00 | 0.00 | 0.00 | 42 | 1009.1 |
| 20260506003745 | 74 | 171 | 3.5 | 6.1 | 0.00 | 0.00 | 0.00 | 41 | 1009.2 |
| 20260506003242 | 74 | 166 | 0.9 | 2.6 | 0.00 | 0.00 | 0.00 | 41 | 1009.1 |
| 20260506002739 | 74 | 209 | 0.0 | 0.9 | 0.00 | 0.00 | 0.00 | 40 | 1009.1 |
| 20260506002235 | 75 | 204 | 1.7 | 2.6 | 0.00 | 0.00 | 0.00 | 39 | 1009.1 |
| 20260506001730 | 75 | 207 | 4.3 | 5.2 | 0.00 | 0.00 | 0.00 | 39 | 1008.8 |
| 20260506001229 | 75 | 184 | 1.7 | 2.6 | 0.00 | 0.00 | 0.00 | 38 | 1009.1 |
| 20260506000725 | 75 | 207 | 1.7 | 2.6 | 0.00 | 0.00 | 0.00 | 38 | 1008.8 |
| 20260506000223 | 75 | 212 | 2.6 | 5.2 | 0.00 | 0.00 | 0.00 | 38 | 1008.9 |
| 20260505235720 | 75 | 212 | 3.5 | 7.8 | 0.00 | 0.00 | 0.00 | 38 | 1009.0 |
| 20260505235218 | 76 | 214 | 1.7 | 1.7 | 0.00 | 0.00 | 0.00 | 37 | 1008.8 |
| 20260505234714 | 76 | 212 | 5.2 | 9.6 | 0.00 | 0.00 | 0.00 | 37 | 1008.6 |
| 20260505234212 | 76 | 205 | 1.7 | 2.6 | 0.00 | 0.00 | 0.00 | 37 | 1008.8 |
| 20260505233708 | 76 | 206 | 3.5 | 5.2 | 0.00 | 0.00 | 0.00 | 37 | 1008.9 |
| 20260505233206 | 76 | 188 | 4.3 | 8.7 | 0.00 | 0.00 | 0.00 | 36 | 1008.7 |
| 20260505232703 | 77 | 152 | 0.0 | 0.9 | 0.00 | 0.00 | 0.00 | 36 | 1008.8 |
| 20260505232200 | 77 | 177 | 2.6 | 2.6 | 0.00 | 0.00 | 0.00 | 35 | 1008.6 |
| 20260505231657 | 77 | 180 | 6.1 | 9.6 | 0.00 | 0.00 | 0.00 | 36 | 1008.6 |
| 20260505231156 | 77 | 198 | 2.6 | 4.3 | 0.00 | 0.00 | 0.00 | 36 | 1008.4 |
| 20260505230654 | 77 | 183 | 0.0 | 1.7 | 0.00 | 0.00 | 0.00 | 36 | 1008.4 |
| 20260505230151 | 77 | 226 | 3.5 | 5.2 | 0.00 | 0.00 | 0.00 | 35 | 1008.2 |
| 20260505225647 | 77 | 198 | 1.7 | 4.3 | 0.00 | 0.00 | 0.00 | 35 | 1008.6 |
| 20260505225143 | 77 | 167 | 3.5 | 4.3 | 0.00 | 0.00 | 0.00 | 35 | 1008.2 |
| 20260505224639 | 77 | 236 | 5.2 | 8.7 | 0.00 | 0.00 | 0.00 | 34 | 1008.4 |
| 20260505224137 | 78 | 201 | 3.5 | 8.7 | 0.00 | 0.00 | 0.00 | 34 | 1008.2 |
| 20260505223634 | 77 | 223 | 2.6 | 5.2 | 0.00 | 0.00 | 0.00 | 34 | 1008.2 |
| 20260505223130 | 77 | 355 | 1.7 | 1.7 | 0.00 | 0.00 | 0.00 | 35 | 1007.7 |
| 20260505222626 | 77 | 216 | 4.3 | 6.1 | 0.00 | 0.00 | 0.00 | 34 | 1007.9 |
| 20260505222123 | 77 | 187 | 6.1 | 7.8 | 0.00 | 0.00 | 0.00 | 34 | 1008.1 |
| 20260505221620 | 78 | 285 | 3.5 | 6.1 | 0.00 | 0.00 | 0.00 | 34 | 1008.0 |
| 20260505221116 | 78 | 221 | 5.2 | 7.0 | 0.00 | 0.00 | 0.00 | 35 | 1007.9 |
| 20260505220614 | 78 | 259 | 4.3 | 6.1 | 0.00 | 0.00 | 0.00 | 34 | 1007.9 |
| 20260505220111 | 78 | 246 | 6.1 | 7.8 | 0.00 | 0.00 | 0.00 | 34 | 1008.0 |
| 20260505215609 | 78 | 193 | 3.5 | 6.1 | 0.00 | 0.00 | 0.00 | 34 | 1007.7 |
| 20260505215107 | 79 | 197 | 5.2 | 8.7 | 0.00 | 0.00 | 0.00 | 33 | 1007.9 |
| 20260505214605 | 79 | 206 | 2.6 | 5.2 | 0.00 | 0.00 | 0.00 | 33 | 1008.1 |
| 20260505214102 | 78 | 217 | 6.1 | 7.8 | 0.00 | 0.00 | 0.00 | 33 | 1007.9 |
| 20260505213559 | 79 | 233 | 4.3 | 6.1 | 0.00 | 0.00 | 0.00 | 33 | 1008.2 |
| 20260505213055 | 79 | 184 | 4.3 | 7.0 | 0.00 | 0.00 | 0.00 | 32 | 1008.1 |
| 20260505212551 | 79 | 216 | 5.2 | 7.0 | 0.00 | 0.00 | 0.00 | 33 | 1008.1 |
| 20260505212049 | 78 | 218 | 1.7 | 2.6 | 0.00 | 0.00 | 0.00 | 34 | 1008.0 |
| 20260505211546 | 78 | 264 | 2.6 | 2.6 | 0.00 | 0.00 | 0.00 | 33 | 1007.9 |
| 20260505211043 | 78 | 247 | 1.7 | 2.6 | 0.00 | 0.00 | 0.00 | 33 | 1007.8 |
| 20260505210539 | 78 | 261 | 6.1 | 7.8 | 0.00 | 0.00 | 0.00 | 33 | 1007.8 |
| 20260505210037 | 78 | 186 | 6.1 | 7.8 | 0.00 | 0.00 | 0.00 | 34 | 1007.6 |
| 20260505205535 | 78 | 190 | 6.1 | 9.6 | 0.00 | 0.00 | 0.00 | 32 | 1007.7 |
| 20260505205031 | 78 | 203 | 9.6 | 14.8 | 0.00 | 0.00 | 0.00 | 32 | 1007.7 |
| 20260505204529 | 79 | 184 | 10.4 | 13.9 | 0.00 | 0.00 | 0.00 | 32 | 1007.7 |
| 20260505204026 | 79 | 213 | 4.3 | 7.0 | 0.00 | 0.00 | 0.00 | 31 | 1007.9 |
| 20260505203523 | 79 | 199 | 3.5 | 7.0 | 0.00 | 0.00 | 0.00 | 31 | 1007.7 |
| 20260505203020 | 80 | 286 | 5.2 | 11.3 | 0.00 | 0.00 | 0.00 | 31 | 1007.8 |
| 20260505202516 | 80 | 225 | 7.8 | 9.6 | 0.00 | 0.00 | 0.00 | 30 | 1007.7 |
| 20260505202012 | 79 | 179 | 11.3 | 15.6 | 0.00 | 0.00 | 0.00 | 30 | 1007.5 |
| 20260505201510 | 79 | 183 | 5.2 | 11.3 | 0.00 | 0.00 | 0.00 | 30 | 1007.9 |
| 20260505201006 | 80 | 196 | 8.7 | 12.2 | 0.00 | 0.00 | 0.00 | 29 | 1007.9 |
| 20260505200504 | 80 | 198 | 7.0 | 17.4 | 0.00 | 0.00 | 0.00 | 29 | 1008.1 |
| 20260505200000 | 80 | 225 | 6.1 | 9.6 | 0.00 | 0.00 | 0.00 | 29 | 1007.9 |
| 20260505195457 | 80 | 218 | 7.8 | 11.3 | 0.00 | 0.00 | 0.00 | 30 | 1007.7 |
| 20260505194954 | 80 | 191 | 9.6 | 13.0 | 0.00 | 0.00 | 0.00 | 31 | 1007.8 |
| 20260505194452 | 80 | 207 | 4.3 | 9.6 | 0.00 | 0.00 | 0.00 | 29 | 1008.0 |
| 20260505193952 | 80 | 214 | 3.5 | 7.0 | 0.00 | 0.00 | 0.00 | 29 | 1007.8 |
| 20260505193450 | 80 | 262 | 0.9 | 2.6 | 0.00 | 0.00 | 0.00 | 31 | 1008.1 |
| 20260505192947 | 80 | 204 | 2.6 | 6.1 | 0.00 | 0.00 | 0.00 | 31 | 1007.9 |
| 20260505192445 | 80 | 201 | 3.5 | 5.2 | 0.00 | 0.00 | 0.00 | 30 | 1007.8 |
| 20260505191942 | 80 | 270 | 6.1 | 18.2 | 0.00 | 0.00 | 0.00 | 29 | 1007.8 |
| 20260505191441 | 80 | 205 | 10.4 | 13.0 | 0.00 | 0.00 | 0.00 | 29 | 1008.0 |
| 20260505190937 | 81 | 189 | 6.1 | 9.6 | 0.00 | 0.00 | 0.00 | 32 | 1008.2 |
| 20260505190432 | 80 | 215 | 12.2 | 15.6 | 0.00 | 0.00 | 0.00 | 31 | 1008.1 |
| 20260505185928 | 80 | 153 | 4.3 | 7.0 | 0.00 | 0.00 | 0.00 | 34 | 1008.1 |
| 20260505185426 | 81 | 167 | 5.2 | 7.8 | 0.00 | 0.00 | 0.00 | 32 | 1008.2 |
| 20260505184922 | 81 | 213 | 6.1 | 7.8 | 0.00 | 0.00 | 0.00 | 31 | 1008.7 |
| 20260505184419 | 80 | 227 | 13.9 | 19.1 | 0.00 | 0.00 | 0.00 | 32 | 1008.6 |
| 20260505183916 | 80 | 204 | 12.2 | 17.4 | 0.00 | 0.00 | 0.00 | 29 | 1008.7 |
| 20260505183413 | 80 | 233 | 10.4 | 13.9 | 0.00 | 0.00 | 0.00 | 32 | 1008.4 |
| 20260505182909 | 81 | 201 | 11.3 | 17.4 | 0.00 | 0.00 | 0.00 | 32 | 1008.9 |
| 20260505182406 | 80 | 217 | 8.7 | 14.8 | 0.00 | 0.00 | 0.00 | 34 | 1008.8 |
| 20260505181902 | 80 | 208 | 7.0 | 8.7 | 0.00 | 0.00 | 0.00 | 34 | 1008.9 |
| 20260505181400 | 80 | 273 | 5.2 | 8.7 | 0.00 | 0.00 | 0.00 | 35 | 1008.6 |
| 20260505180856 | 80 | 196 | 5.2 | 7.8 | 0.00 | 0.00 | 0.00 | 35 | 1008.9 |
| 20260505180353 | 80 | 248 | 5.2 | 7.0 | 0.00 | 0.00 | 0.00 | 35 | 1008.7 |
| 20260505175850 | 80 | 188 | 6.1 | 8.7 | 0.00 | 0.00 | 0.00 | 37 | 1008.9 |
| 20260505175346 | 80 | 185 | 4.3 | 7.8 | 0.00 | 0.00 | 0.00 | 38 | 1008.9 |
| 20260505174843 | 81 | 166 | 4.3 | 6.1 | 0.00 | 0.00 | 0.00 | 37 | 1009.0 |
| 20260505174340 | 80 | 309 | 0.9 | 2.6 | 0.00 | 0.00 | 0.00 | 40 | 1009.0 |
| 20260505173836 | 80 | 215 | 4.3 | 5.2 | 0.00 | 0.00 | 0.00 | 40 | 1009.0 |
| 20260505173333 | 80 | 229 | 4.3 | 7.0 | 0.00 | 0.00 | 0.00 | 37 | 1009.2 |
| 20260505172830 | 79 | 212 | 6.1 | 7.0 | 0.00 | 0.00 | 0.00 | 38 | 1009.2 |
| 20260505172327 | 79 | 232 | 3.5 | 7.0 | 0.00 | 0.00 | 0.00 | 39 | 1009.3 |
| 20260505171821 | 79 | 222 | 6.1 | 12.2 | 0.00 | 0.00 | 0.00 | 38 | 1009.5 |
| 20260505171318 | 78 | 229 | 1.7 | 7.0 | 0.00 | 0.00 | 0.00 | 40 | 1009.4 |
| 20260505170814 | 78 | 256 | 4.3 | 7.0 | 0.00 | 0.00 | 0.00 | 40 | 1009.7 |
| 20260505170312 | 78 | 210 | 7.0 | 8.7 | 0.00 | 0.00 | 0.00 | 39 | 1009.4 |
| 20260505165807 | 78 | 267 | 4.3 | 7.8 | 0.00 | 0.00 | 0.00 | 40 | 1009.6 |
| 20260505165305 | 78 | 283 | 4.3 | 7.0 | 0.00 | 0.00 | 0.00 | 42 | 1009.7 |
| 20260505164758 | 78 | 156 | 2.6 | 4.3 | 0.00 | 0.00 | 0.00 | 40 | 1009.7 |
| 20260505164256 | 77 | 243 | 3.5 | 5.2 | 0.00 | 0.00 | 0.00 | 41 | 1009.8 |
| 20260505163754 | 77 | 193 | 6.1 | 7.0 | 0.00 | 0.00 | 0.00 | 44 | 1009.9 |
| 20260505163252 | 77 | 198 | 2.6 | 5.2 | 0.00 | 0.00 | 0.00 | 43 | 1010.0 |
| 20260505162749 | 77 | 213 | 3.5 | 6.1 | 0.00 | 0.00 | 0.00 | 43 | 1010.0 |
| 20260505162246 | 77 | 180 | 0.0 | 1.7 | 0.00 | 0.00 | 0.00 | 42 | 1010.1 |
| 20260505161743 | 77 | 203 | 2.6 | 4.3 | 0.00 | 0.00 | 0.00 | 45 | 1010.2 |
| 20260505161241 | 76 | 208 | 0.9 | 1.7 | 0.00 | 0.00 | 0.00 | 43 | 1010.1 |
| 20260505160738 | 77 | 210 | 4.3 | 7.0 | 0.00 | 0.00 | 0.00 | 43 | 1010.1 |
| 20260505160236 | 75 | 211 | 2.6 | 4.3 | 0.00 | 0.00 | 0.00 | 47 | 1010.2 |
| 20260505153215 | 74 | 239 | 1.7 | 5.2 | 0.00 | 0.00 | 0.00 | 47 | 1010.8 |
| 20260505152711 | 74 | 221 | 2.6 | 6.1 | 0.00 | 0.00 | 0.00 | 45 | 1010.8 |
| 20260505152208 | 73 | 195 | 0.0 | 0.0 | 0.00 | 0.00 | 0.00 | 49 | 1010.7 |
| 20260505151703 | 73 | 213 | 2.6 | 4.3 | 0.00 | 0.00 | 0.00 | 48 | 1010.7 |
| 20260505151200 | 73 | 225 | 0.9 | 1.7 | 0.00 | 0.00 | 0.00 | 48 | 1010.9 |
| 20260505150656 | 71 | 185 | 1.7 | 1.7 | 0.00 | 0.00 | 0.00 | 51 | 1010.6 |
| 20260505150154 | 71 | 202 | 1.7 | 2.6 | 0.00 | 0.00 | 0.00 | 51 | 1010.9 |
| 20260505140622 | 68 | 195 | 2.6 | 2.6 | 0.00 | 0.00 | 0.00 | 57 | 1011.5 |
| 20260505140119 | 68 | 203 | 0.0 | 0.0 | 0.00 | 0.00 | 0.00 | 57 | 1011.4 |
| 20260505125036 | 64 | 210 | 0.0 | 0.0 | 0.00 | 0.00 | 0.00 | 63 | 1010.9 |
| 20260505124532 | 64 | 226 | 0.9 | 4.3 | 0.00 | 0.00 | 0.00 | 65 | 1011.2 |
| 20260505124028 | 63 | 8 | 0.0 | 0.9 | 0.00 | 0.00 | 0.00 | 66 | 1011.1 |
| 20260505123525 | 63 | 252 | 1.7 | 2.6 | 0.00 | 0.00 | 0.00 | 66 | 1011.3 |
| 20260505123021 | 63 | 160 | 0.0 | 0.0 | 0.00 | 0.00 | 0.00 | 66 | 1011.3 |
| 20260505122518 | 63 | 285 | 0.0 | 0.9 | 0.00 | 0.00 | 0.00 | 67 | 1011.1 |
| 20260505122015 | 62 | 243 | 0.0 | 0.9 | 0.00 | 0.00 | 0.00 | 68 | 1011.1 |
| 20260505121512 | 62 | 266 | 0.9 | 2.6 | 0.00 | 0.00 | 0.00 | 68 | 1010.8 |
| 20260505121009 | 61 | 296 | 0.0 | 0.0 | 0.00 | 0.00 | 0.00 | 69 | 1010.8 |
| 20260505120505 | 61 | 221 | 0.0 | 0.0 | 0.00 | 0.00 | 0.00 | 71 | 1010.8 |
| 20260505120005 | 60 | 306 | 0.0 | 0.0 | 0.00 | 0.00 | 0.00 | 71 | 1011.0 |
| 20260505115500 | 60 | 256 | 0.0 | 0.0 | 0.00 | 0.00 | 0.00 | 73 | 1010.9 |
| 20260505114958 | 59 | 218 | 0.0 | 0.0 | 0.00 | 0.00 | 0.00 | 72 | 1011.0 |
| 20260505114454 | 59 | 281 | 0.0 | 0.0 | 0.00 | 0.00 | 0.00 | 73 | 1011.2 |
| 20260505113951 | 59 | 252 | 0.0 | 0.0 | 0.00 | 0.00 | 0.00 | 74 | 1011.1 |
| 20260505113447 | 59 | 186 | 0.0 | 0.0 | 0.00 | 0.00 | 0.00 | 74 | 1011.0 |
| 20260505112943 | 58 | 256 | 0.0 | 0.9 | 0.00 | 0.00 | 0.00 | 76 | 1011.1 |
| 20260505112441 | 57 | 283 | 0.0 | 0.0 | 0.00 | 0.00 | 0.00 | 77 | 1011.2 |
| 20260505111937 | 57 | 186 | 0.0 | 0.0 | 0.00 | 0.00 | 0.00 | 79 | 1011.3 |
| 20260505111432 | 56 | 289 | 0.0 | 0.0 | 0.00 | 0.00 | 0.00 | 79 | 1011.0 |
| 20260505110928 | 56 | 317 | 0.0 | 0.0 | 0.00 | 0.00 | 0.00 | 81 | 1011.0 |
| 20260505110425 | 55 | 354 | 0.0 | 0.0 | 0.00 | 0.00 | 0.00 | 83 | 1010.9 |
| 20260505101856 | 55 | 141 | 0.0 | 0.0 | 0.00 | 0.00 | 0.00 | 75 | 1010.3 |
| 20260505101351 | 55 | 120 | 0.0 | 0.0 | 0.00 | 0.00 | 0.00 | 73 | 1010.4 |
| 20260505100847 | 56 | 143 | 0.0 | 0.0 | 0.00 | 0.00 | 0.00 | 70 | 1010.8 |
| 20260505100344 | 56 | 151 | 0.0 | 0.0 | 0.00 | 0.00 | 0.00 | 70 | 1010.7 |
| 20260505095839 | 57 | 159 | 0.0 | 0.0 | 0.00 | 0.00 | 0.00 | 69 | 1010.6 |
| 20260505095337 | 57 | 200 | 0.0 | 0.0 | 0.00 | 0.00 | 0.00 | 69 | 1010.9 |
| 20260505094833 | 57 | 169 | 0.0 | 0.0 | 0.00 | 0.00 | 0.00 | 68 | 1011.0 |
| 20260505094330 | 57 | 271 | 0.9 | 1.7 | 0.00 | 0.00 | 0.00 | 68 | 1010.9 |
| 20260505093825 | 57 | 272 | 0.0 | 0.0 | 0.00 | 0.00 | 0.00 | 66 | 1010.9 |
| 20260505093324 | 58 | 281 | 0.0 | 0.0 | 0.00 | 0.00 | 0.00 | 65 | 1010.8 |
| 20260505092820 | 57 | 197 | 0.0 | 0.0 | 0.00 | 0.00 | 0.00 | 65 | 1010.6 |
| 20260505092319 | 57 | 210 | 0.0 | 0.0 | 0.00 | 0.00 | 0.00 | 65 | 1010.7 |
| 20260505091815 | 57 | 240 | 0.9 | 1.7 | 0.00 | 0.00 | 0.00 | 66 | 1010.6 |
| 20260505091314 | 57 | 257 | 0.0 | 0.0 | 0.00 | 0.00 | 0.00 | 66 | 1010.3 |
| 20260505090811 | 56 | 317 | 0.0 | 0.0 | 0.00 | 0.00 | 0.00 | 66 | 1010.6 |
| 20260505090309 | 56 | 298 | 0.0 | 0.0 | 0.00 | 0.00 | 0.00 | 65 | 1010.4 |
| 20260505085806 | 57 | 283 | 0.0 | 0.0 | 0.00 | 0.00 | 0.00 | 65 | 1010.3 |
| 20260505085305 | 57 | 294 | 0.0 | 0.0 | 0.00 | 0.00 | 0.00 | 64 | 1010.3 |
| 20260505084801 | 57 | 286 | 0.0 | 0.0 | 0.00 | 0.00 | 0.00 | 64 | 1010.3 |
| 20260505084300 | 57 | 269 | 0.0 | 0.0 | 0.00 | 0.00 | 0.00 | 63 | 1010.3 |
| 20260505083756 | 57 | 279 | 0.0 | 0.0 | 0.00 | 0.00 | 0.00 | 63 | 1010.1 |
| 20260505083253 | 57 | 248 | 0.0 | 0.0 | 0.00 | 0.00 | 0.00 | 63 | 1010.0 |
| 20260505082749 | 57 | 298 | 0.0 | 0.0 | 0.00 | 0.00 | 0.00 | 62 | 1010.2 |
| 20260505082247 | 57 | 249 | 0.0 | 0.0 | 0.00 | 0.00 | 0.00 | 62 | 1010.1 |
| 20260505081743 | 57 | 285 | 0.0 | 0.0 | 0.00 | 0.00 | 0.00 | 62 | 1010.3 |
| 20260505081240 | 57 | 287 | 0.0 | 0.0 | 0.00 | 0.00 | 0.00 | 62 | 1010.2 |
| 20260505080737 | 57 | 261 | 0.0 | 0.0 | 0.00 | 0.00 | 0.00 | 62 | 1010.1 |
| 20260505080232 | 57 | 274 | 0.0 | 0.0 | 0.00 | 0.00 | 0.00 | 61 | 1010.0 |
| 20260505075728 | 57 | 288 | 0.0 | 0.0 | 0.00 | 0.00 | 0.00 | 62 | 1010.2 |
| 20260505075226 | 57 | 281 | 0.0 | 0.0 | 0.00 | 0.00 | 0.00 | 62 | 1010.2 |
| 20260505074723 | 57 | 267 | 0.0 | 0.0 | 0.00 | 0.00 | 0.00 | 62 | 1010.2 |
| 20260505074220 | 57 | 299 | 0.0 | 0.0 | 0.00 | 0.00 | 0.00 | 62 | 1010.3 |
| 20260505073718 | 57 | 296 | 0.0 | 0.0 | 0.00 | 0.00 | 0.00 | 62 | 1010.2 |
| 20260505073215 | 57 | 304 | 0.0 | 0.0 | 0.00 | 0.00 | 0.00 | 62 | 1010.2 |
| 20260505072711 | 57 | 301 | 0.0 | 0.0 | 0.00 | 0.00 | 0.00 | 62 | 1010.2 |
| 20260505072208 | 57 | 298 | 0.0 | 0.0 | 0.00 | 0.00 | 0.00 | 62 | 1010.1 |
| 20260505071703 | 57 | 322 | 0.0 | 0.0 | 0.00 | 0.00 | 0.00 | 61 | 1010.0 |
| 20260505071201 | 57 | 271 | 0.0 | 0.0 | 0.00 | 0.00 | 0.00 | 61 | 1010.1 |
| 20260505070658 | 57 | 251 | 0.0 | 0.0 | 0.00 | 0.00 | 0.00 | 60 | 1010.1 |
| 20260505070154 | 57 | 224 | 0.0 | 0.0 | 0.00 | 0.00 | 0.00 | 60 | 1010.0 |
| 20260505065650 | 57 | 205 | 0.0 | 0.0 | 0.00 | 0.00 | 0.00 | 60 | 1010.2 |
| 20260505065147 | 57 | 238 | 0.0 | 0.0 | 0.00 | 0.00 | 0.00 | 60 | 1010.1 |
| 20260505064644 | 57 | 244 | 0.0 | 0.0 | 0.00 | 0.00 | 0.00 | 60 | 1010.0 |
| 20260505064142 | 57 | 231 | 0.0 | 0.0 | 0.00 | 0.00 | 0.00 | 61 | 1010.4 |
| 20260505063639 | 57 | 259 | 0.0 | 0.0 | 0.00 | 0.00 | 0.00 | 61 | 1010.2 |
| 20260505063135 | 57 | 278 | 0.0 | 0.0 | 0.00 | 0.00 | 0.00 | 60 | 1010.3 |
| 20260505062632 | 57 | 304 | 0.0 | 0.0 | 0.00 | 0.00 | 0.00 | 60 | 1010.1 |
| 20260505062129 | 57 | 248 | 0.0 | 0.0 | 0.00 | 0.00 | 0.00 | 59 | 1010.3 |
| 20260505061626 | 58 | 303 | 0.0 | 0.0 | 0.00 | 0.00 | 0.00 | 59 | 1010.2 |
| 20260505061124 | 58 | 218 | 0.0 | 0.0 | 0.00 | 0.00 | 0.00 | 59 | 1010.3 |
| 20260505060622 | 58 | 297 | 0.0 | 0.0 | 0.00 | 0.00 | 0.00 | 58 | 1010.4 |
| 20260505060118 | 58 | 207 | 0.0 | 0.0 | 0.00 | 0.00 | 0.00 | 58 | 1010.4 |
| 20260505055613 | 58 | 272 | 0.0 | 0.0 | 0.00 | 0.00 | 0.00 | 57 | 1010.3 |
| 20260505055110 | 59 | 180 | 0.0 | 0.0 | 0.00 | 0.00 | 0.00 | 57 | 1010.2 |
| 20260505054608 | 59 | 182 | 0.0 | 0.0 | 0.00 | 0.00 | 0.00 | 56 | 1010.4 |
| 20260505054106 | 59 | 202 | 1.7 | 1.7 | 0.00 | 0.00 | 0.00 | 55 | 1010.2 |
| 20260505053602 | 59 | 266 | 0.0 | 0.0 | 0.00 | 0.00 | 0.00 | 55 | 1010.3 |
| 20260505053059 | 59 | 262 | 0.0 | 0.0 | 0.00 | 0.00 | 0.00 | 54 | 1010.4 |
| 20260505052556 | 59 | 203 | 0.0 | 0.0 | 0.00 | 0.00 | 0.00 | 54 | 1010.4 |
| 20260505052054 | 59 | 194 | 0.0 | 0.0 | 0.00 | 0.00 | 0.00 | 53 | 1010.3 |
| 20260505051550 | 59 | 183 | 0.0 | 0.0 | 0.00 | 0.00 | 0.00 | 53 | 1010.3 |
| 20260505051048 | 59 | 211 | 0.0 | 0.0 | 0.00 | 0.00 | 0.00 | 53 | 1010.2 |
| 20260505050546 | 60 | 250 | 0.0 | 0.0 | 0.00 | 0.00 | 0.00 | 52 | 1010.5 |